Weather History for KBIL - October, 2013

Change the Weather History Date:

Wednesday, October 16, 2013

  Actual Average Record
Temperature  
Mean Temperature 44 °F 48 °F  
Max Temperature 53 °F 59 °F 86 °F (1991)
Min Temperature 35 °F 37 °F 19 °F (1976)
Degree Days  
Heating Degree Days 21 17  
Month to date heating degree days 316 227  
Since 1 July heating degree days 430 456  
Cooling Degree Days 0 0  
Month to date cooling degree days 0 0  
Year to date cooling degree days 840 633  
Moisture  
Dew Point 30 °F    
Average Humidity 63    
Maximum Humidity 85    
Minimum Humidity 41    
Precipitation  
Precipitation 0.08 in 0.04 in 0.87 in (1994)
Month to date precipitation 2.27 0.70  
Year to date precipitation 14.08 12.05  
Snow  
Snow T in 0.10 in 5.20 in (1980)
Month to date snowfall 0.3 1.9  
Since 1 July snowfall 0.3 3.0  
Since 1 September snowfall 0.3 3.0  
Snow Depth 0.00 in    
Sea Level Pressure  
Sea Level Pressure 30.12 in    
Wind  
Wind Speed 17 mph (WNW)    
Max Wind Speed 32 mph    
Max Gust Speed 43 mph    
Visibility 10 miles    
Events Rain , Snow    
T = Trace of Precipitation, MM = Missing Value Source: NWS Daily Summary

Daily Weather History Graph

Daily Weather History Graph

Search for Another Location

Airport or City:

Trip Planner

Search our weather history database for the weather conditions in past years. The results will help you decide how hot, cold, wet, or windy it might be!

Date:

Astronomy

Oct. 16, 2013 Rise Set
Actual Time 7:32 AM MDT 6:25 PM MDT
Civil Twilight 7:02 AM MDT 6:56 PM MDT
Nautical Twilight 6:27 AM MDT 7:30 PM MDT
Astronomical Twilight 5:53 AM MDT 8:04 PM MDT
Moon 5:12 PM MDT (10/16) 4:57 AM MDT (10/16)
Length of Visible Light 11h 53m
Length of Day
10h 53m
Waxing Gibbous, 94% of the Moon is Illuminated
Oct 16
Waxing Gibbous
Oct 18
Full
Oct 26
Last Quarter
Nov 3
New
Nov 9
First Quarter

Hourly Weather History & Observations

Time (MDT) Temp. Windchill Dew Point Humidity Pressure Visibility Wind Dir Wind Speed Gust Speed Precip Events Conditions
12:53 AM 37.9 °F 27.9 °F 27.0 °F 65% 30.13 in 10.0 mi WSW 19.6 mph - N/A   Clear
1:53 AM 37.9 °F 28.2 °F 27.0 °F 65% 30.12 in 10.0 mi WSW 18.4 mph - N/A   Clear
2:53 AM 37.0 °F 25.6 °F 27.0 °F 67% 30.11 in 10.0 mi WSW 24.2 mph - N/A   Clear
3:53 AM 37.0 °F 26.4 °F 27.0 °F 67% 30.10 in 10.0 mi WSW 20.7 mph - N/A   Clear
4:53 AM 36.0 °F 25.3 °F 27.0 °F 70% 30.08 in 10.0 mi SW 19.6 mph - N/A   Clear
5:53 AM 36.0 °F 24.7 °F 27.0 °F 70% 30.08 in 10.0 mi WSW 21.9 mph - N/A   Clear
6:53 AM 36.0 °F 25.0 °F 26.1 °F 67% 30.07 in 10.0 mi SW 20.7 mph - N/A   Clear
7:53 AM 36.0 °F 25.3 °F 26.1 °F 67% 30.08 in 10.0 mi WSW 19.6 mph - N/A   Partly Cloudy
8:53 AM 37.0 °F 27.0 °F 26.1 °F 65% 30.09 in 10.0 mi WSW 18.4 mph - N/A   Partly Cloudy
9:53 AM 41.0 °F 31.6 °F 27.0 °F 57% 30.08 in 10.0 mi WSW 20.7 mph - N/A   Clear
10:53 AM 45.0 °F 37.4 °F 28.0 °F 52% 30.08 in 10.0 mi WSW 18.4 mph - N/A   Partly Cloudy
11:53 AM 50.0 °F - 28.9 °F 44% 30.05 in 10.0 mi WSW 16.1 mph 23.0 mph N/A   Partly Cloudy
12:53 PM 52.0 °F - 28.0 °F 40% 30.04 in 10.0 mi WSW 16.1 mph - N/A   Partly Cloudy
1:53 PM 51.1 °F - 28.0 °F 41% 30.04 in 10.0 mi WSW 12.7 mph - N/A   Scattered Clouds
2:50 PM 53.6 °F - 26.6 °F 35% 30.01 in 10.0 mi WNW 11.5 mph - N/A   Mostly Cloudy
3:53 PM 46.0 °F 37.0 °F 34.0 °F 63% 30.07 in 10.0 mi NW 27.6 mph 36.8 mph N/A   Overcast
4:53 PM 44.1 °F 35.4 °F 33.1 °F 65% 30.10 in 10.0 mi NNW 21.9 mph 32.2 mph 0.00 in   Overcast
6:53 PM 42.1 °F 32.8 °F 35.1 °F 76% 30.13 in 10.0 mi NNW 21.9 mph 29.9 mph 0.00 in   Overcast
7:53 PM 41.0 °F 32.8 °F 36.0 °F 82% 30.16 in 10.0 mi North 16.1 mph - 0.00 in   Overcast
8:53 PM 39.0 °F 31.0 °F 35.1 °F 86% 30.19 in 10.0 mi North 13.8 mph - 0.00 in Rain Light Rain
9:35 PM 39.0 °F 32.3 °F 35.1 °F 86% 30.15 in 10.0 mi North 10.4 mph - 0.00 in Rain Light Rain
9:53 PM 37.9 °F 29.6 °F 34.0 °F 86% 30.21 in 10.0 mi North 13.8 mph - 0.00 in Rain Light Rain
10:03 PM 37.9 °F 30.5 °F 34.0 °F 86% 30.16 in 10.0 mi North 11.5 mph - 0.00 in Rain Light Rain
10:53 PM 37.0 °F 31.6 °F 34.0 °F 89% 30.22 in 10.0 mi NNE 6.9 mph - 0.01 in Rain Light Rain
11:33 PM 36.0 °F 29.6 °F 34.0 °F 93% 30.19 in 6.0 mi NE 8.1 mph - 0.04 in Rain Rain
11:53 PM 35.1 °F - 33.1 °F 92% 30.23 in 5.0 mi Calm Calm - 0.06 in Rain , Snow Light Rain